Torna al catalogo

DELTA 1 DEB

YO

AttivoLEO
NORAD 227·DEBRIS·🇺🇸 United States

Lanciato Feb 8, 1962 da Cape Canaveral Space Force Station

Loading…

Prossimi Passaggi (prossime 24 ore)

TLE

In scadenzaSource: Space-Track

Epoca: Sep 12, 2026, 12:49 UTC

1 00227U 62002B   26255.53446929 -.00000010  00000-0  47523-4 0  9990
2 00227  48.1474 316.8186 0126533  59.8134 301.5225 14.40826034356895

Traccia DELTA 1 DEB in tempo reale con AllMySat

Download on the App Store